Regional Weather Roundup
Issued by NWS

Home | Current Version | Previous Version | Text Only | Print | Product List | Glossary Off
Versions: 1 2 3 4 5 6 7 8 9 10 11 12 13 14 15 16 17 18 19 20 21 22 23 24 25 26 27 28 29 30 31 32 33 34 35 36 37 38 39 40 41 42 43 44 45 46 47 48 49 50

000
ASUS43 KMPX 200510
RWRMN
WEATHER ROUNDUP FOR MINNESOTA
NATIONAL WEATHER SERVICE TWIN CITIES/CHANHASSEN MN
1200 AM CDT FRI OCT 20 2017


NOTE: "FAIR" INDICATES FEW OR NO CLOUDS BELOW 12,000 FEET WITH NO
SIGNIFICANT WEATHER AND/OR OBSTRUCTIONS TO VISIBILITY. N/A MEANS
CURRENT SKY AND/OR WEATHER CONDITIONS ARE NOT AVAILABLE.

MNZ060>063-068>070-200600-
   Twin Cities Metro

CITY           SKY/WX    TMP DP  RH WIND       PRES   REMARKS
TWIN CITIES    FAIR      55  42  61 SE9       29.93F
ST PAUL        FAIR      55  42  61 SE9       29.94F
CRYSTAL        FAIR      56  40  55 SE7       29.91S
BLAINE         FAIR      57  43  58 S9        29.92S
LAKEVILLE      FAIR      61  48  63 S9G16     29.93F
EDEN PRAIRIE   FAIR      58  44  60 S7        29.91F
SOUTH ST PAUL  FAIR      57  40  52 S5        29.94S
LAKE ELMO      FAIR      55  41  58 S9        29.95F
$$
MNZ001>005-007-008-013>017-022>024-027-028-200600-
   Northwest Minnesota

CITY           SKY/WX    TMP DP  RH WIND       PRES   REMARKS
BEMIDJI        FAIR      57  41  56 S7        29.79S
HALLOCK        FAIR      48  36  61 SE9       29.69S
ROSEAU         FAIR      52  43  71 S9        29.72F
WARROAD        FAIR      54  43  66 S3        29.74R
THIEF RVR FALL FAIR      54  42  64 S8        29.74F
CROOKSTON      FAIR      55  45  67 S12       29.72F
FOSSTON        FAIR      54  43  66 S10       29.76F
DETROIT LAKES  FAIR      55  45  67 SE6       29.81S
MOORHEAD       FAIR      57  46  67 S14       29.75F
PARK RAPIDS    FAIR      53  42  66 SE6       29.82S
MAHNOMEN       FAIR      58  46  64 S8        29.76F
$$
MNZ006-009>011-018-025>026-200600-
   North Central Minnesota

CITY           SKY/WX    TMP DP  RH WIND       PRES   REMARKS
BAUDETTE       FAIR      54  39  57 S8        29.75F
FLAG ISLAND    FAIR      52  46  82 S5        29.72R
INTL FALLS     FAIR      54  35  48 S6        29.79S
WASKISH        FAIR      57  39  51 S5        29.77F
BIG FORK       FAIR      57  37  47 S8        29.81F
LONGVILLE      FAIR      57  39  51 S8        29.83F
GRAND RAPIDS   FAIR      56  38  50 S10       29.86F
CRANE LAKE     FAIR      55  34  44 S3        29.84S
ORR            FAIR      52  32  46 SE5       29.81F
COOK           FAIR      57  36  44 S8        29.84F
WALKER         FAIR      58  42  54 S8        29.81S
$$
MNZ012-019>021-037-200600-
   Northeast Minnesota

CITY           SKY/WX    TMP DP  RH WIND       PRES   REMARKS
DULUTH         FAIR      58  36  43 SW13      29.91S
ELY            FAIR      57  34  41 S6        29.87F
HIBBING        FAIR      40  33  76 S3        29.86F
EVELETH        FAIR      40  38  94 CALM      29.88F
DULUTH HARBOR  FAIR      54  45  71 SW5       29.91S
TWO HARBORS    FAIR      45  37  76 CALM      29.89F
GRAND MARAIS     N/A     43  38  82 CALM      29.91S
G MARAIS ARPRT FAIR      50  34  53 S6        29.92S
$$
MNZ029>031-032-039>041-046>048-054>057-064-200600-
   West Central Minnesota

CITY           SKY/WX    TMP DP  RH WIND       PRES   REMARKS
FERGUS FALLS   FAIR      55  46  71 S12       29.80F
WHEATON        FAIR      52  46  82 SE10      29.80F
MORRIS         FAIR      54  46  76 SE9       29.81F
ALEXANDRIA     FAIR      56  46  69 S9        29.85F
ELBOW LAKE     FAIR      54  46  74 E8        29.81F
WADENA         FAIR      54  45  71 S7        29.83S
GLENWOOD       FAIR      54  46  76 S6        29.86S
APPLETON       FAIR      57  46  67 SE7       29.82S
BENSON         FAIR      55  46  71 S8        29.85F
ORTONVILLE     FAIR      52  46  82 NE7       29.80F
MADISON        FAIR      59  50  72 SE7       29.81F
WILLMAR        FAIR      52  46  82 SE7       29.88S
$$
MNZ033>034-036-042>043-049>051-058-059-200600-
   Central Minnesota

CITY           SKY/WX    TMP DP  RH WIND       PRES   REMARKS
ST CLOUD       FAIR      54  44  69 S8        29.89S
SAUK CENTRE    FAIR      52  44  72 SE6       29.86F
PAYNESVILLE    FAIR      58  47  67 S8        29.88S
AITKIN         FAIR      55  39  54 S12       29.86S
PINE RIVER     FAIR      50  39  66 S5        29.88S
BRAINERD       FAIR      56  40  55 S9        29.87S
STAPLES        FAIR      54  41  62 SE5       29.84F
LONG PRAIRIE   FAIR      52  43  71 SE7       29.87S
LITTLE FALLS   FAIR      52  34  50 SE5       29.87F
LITCHFIELD     FAIR      59  48  67 S3        29.88F
BUFFALO        FAIR      57  43  59 S7        29.90F
MAPLE LAKE     FAIR      56  45  66 S6        29.90S
HUTCHINSON     FAIR      58  50  74 S3        29.90S
$$
MNZ037-044-045-052-053-200600-
   East Central Minnesota

CITY           SKY/WX    TMP DP  RH WIND       PRES   REMARKS
PRINCETON      FAIR      55  41  58 CALM      29.91R
MORA           FAIR      45  37  76 CALM      29.92S
CAMBRIDGE      FAIR      57  43  58 S6        29.91S
RUSH CITY      FAIR      55  38  54 S5        29.92S
MOOSE LAKE     FAIR      52  36  54 S3        29.89S
HINCKLEY       FAIR      52  37  58 S3        29.92S
CLOQUET        FAIR      55  34  44 S6        29.90F
MCGREGOR       FAIR      50  37  62 S5        29.89S
$$
MNZ071>073-080-081-089-090-097-098-200600-
   Southwest Minnesota

CITY           SKY/WX    TMP DP  RH WIND       PRES   REMARKS
MONTEVIDEO     FAIR      52  46  82 S5        29.84S
GRANITE FALLS  FAIR      59  51  75 SE9       29.86S
CANBY          FAIR      68  51  55 SW15G25   29.82S
MARSHALL       FAIR      65  52  62 SW21G28   29.82F
REDWOOD FALLS  FAIR      55  48  77 SE7       29.87S
OLIVIA         FAIR      55  48  76 S8        29.86S
PIPESTONE      FAIR      59  48  67 S9        29.88F
WORTHINGTON    FAIR      57  50  77 S9        29.92S
JACKSON        FAIR      59  50  72 S12       29.93F
TRACY          FAIR      63  53  69 S17       29.86S
SLAYTON        FAIR      62  51  68 S14G20    29.90F
$$
MNZ065>067-074>077-082>085-091>093-200600-
   South Central Minnesota

CITY           SKY/WX    TMP DP  RH WIND       PRES   REMARKS
MANKATO        FAIR      60  51  72 S10       29.93F
NEW ULM        FAIR      57  48  72 S12       29.90F
ST JAMES       FAIR      57  52  82 S10       29.93S
FAIRMONT       FAIR      57  51  80 S12       29.94F
GLENCOE        FAIR      59  49  68 S7        29.90S
FARIBAULT      FAIR      57  46  67 S12       29.95S
OWATONNA       FAIR      59  48  67 S15G21    29.96S
WASECA         FAIR      59  50  72 S12       29.96S
$$
MNZ078>079-086>088-094>096-200600-
   Southeast Minnesota

CITY           SKY/WX    TMP DP  RH WIND       PRES   REMARKS
ROCHESTER      FAIR      55  46  71 S12       30.01S
RED WING       FAIR      57  37  47 SE7       29.96S
STANTON        FAIR      59  46  60 S8        29.93F
DODGE CENTER   FAIR      59  46  63 S17       29.98S
WINONA         FAIR      59  41  51 SE5       30.00F
AUSTIN         FAIR      55  46  71 S7        29.99F
PRESTON        FAIR      56  45  66 S9        30.02F
$$
ABBREVIATIONS USED IN REMARKS
   TC - TEMPERATURES IN CELSIUS
  WCI - WIND CHILL INDEX
   HX - HEAT INDEX
  VSB - VISIBILITY
$$




USA.gov is the U.S. government's official web portal to all federal, state and local government web resources and services.